This is the latest recevied weather packets stored in our database for station/object N4TLC. If no packets are shown the sender has not sent any weather packets the latest 1 day(s).
| Time | Temp. | Humidity | Pressure | Rain* | Wind** | Luminosity | Snow |
|---|---|---|---|---|---|---|---|
| 1778003872 | 25.56° C | 35% | 1017.5 hPa | 0 mm | 2.24 m/s, 194° | 896 W/m² | - |
| 1778003569 | 25° C | 36% | 1017.5 hPa | 0 mm | 2.24 m/s, 187° | 913 W/m² | - |
| 1778003265 | 25° C | 36% | 1017.8 hPa | 0 mm | 1.34 m/s, 191° | 781 W/m² | - |
| 1778002963 | 25° C | 35% | 1017.6 hPa | 0 mm | 1.34 m/s, 191° | 661 W/m² | - |
| 1778002658 | 25° C | 34% | 1017.7 hPa | 0 mm | 1.79 m/s, 200° | 729 W/m² | - |
| 1778002355 | 25° C | 35% | 1017.7 hPa | 0 mm | 2.68 m/s, 194° | 765 W/m² | - |
| 1778002052 | 25° C | 34% | 1017.6 hPa | 0 mm | 2.68 m/s, 202° | 729 W/m² | - |
| 1778001749 | 25° C | 35% | 1017.7 hPa | 0 mm | 1.79 m/s, 198° | 704 W/m² | - |
| 1778001449 | 25° C | 36% | 1017.8 hPa | 0 mm | 1.79 m/s, 149° | 318 W/m² | - |
| 1778001147 | 25° C | 36% | 1017.9 hPa | 0 mm | 1.79 m/s, 204° | 294 W/m² | - |
| 1778000843 | 25° C | 38% | 1017.8 hPa | 0 mm | 0.89 m/s, 183° | 303 W/m² | - |
| 1778000540 | 24.44° C | 38% | 1018.1 hPa | 0 mm | 1.79 m/s, 162° | 261 W/m² | - |
| 1778000235 | 24.44° C | 36% | 1017.9 hPa | 0 mm | 2.68 m/s, 201° | 239 W/m² | - |
| 1777999932 | 25° C | 35% | 1018 hPa | 0 mm | 1.79 m/s, 134° | 216 W/m² | - |
| 1777999627 | 25° C | 36% | 1018 hPa | 0 mm | 0.89 m/s, 256° | 234 W/m² | - |
| 1777999324 | 25° C | 36% | 1018.1 hPa | 0 mm | 0.89 m/s, 230° | 858 W/m² | - |
| 1777999023 | 25.56° C | 37% | 1018.2 hPa | 0 mm | 1.34 m/s, 182° | 900 W/m² | - |
| 1777998721 | 25° C | 37% | 1018.1 hPa | 0 mm | 1.34 m/s, 171° | 881 W/m² | - |
| 1777998418 | 24.44° C | 37% | 1018.1 hPa | 0 mm | 0.89 m/s, 136° | 898 W/m² | - |
| 1777998115 | 24.44° C | 39% | 1018.1 hPa | 0 mm | 3.13 m/s, 293° | 878 W/m² | - |
| 1777997812 | 23.89° C | 39% | 1018.1 hPa | 0 mm | 0.89 m/s, 262° | 701 W/m² | - |
| 1777997509 | 23.89° C | 38% | 1018.4 hPa | 0 mm | 2.24 m/s, 261° | 600 W/m² | - |
| 1777997207 | 23.89° C | 41% | 1018.1 hPa | 0 mm | 0.89 m/s, 262° | 432 W/m² | - |
| 1777996904 | 23.89° C | 40% | 1018.5 hPa | 0 mm | 0.89 m/s, 246° | 355 W/m² | - |
| 1777996600 | 23.89° C | 41% | 1018.5 hPa | 0 mm | 0.45 m/s, 188° | 357 W/m² | - |
* Rain latest hour (hover to see other rain measurements)
** Current wind speed in m/s (hover to see current wind gust speed)